Regional Weather Roundup
Issued by NWS

Home | Current Version | Previous Version | Text Only | Print | Product List | Glossary Off
Versions: 1 2 3 4 5 6 7 8 9 10 11 12 13 14 15 16 17 18 19 20 21 22 23 24 25 26 27 28 29 30 31 32 33 34 35 36 37 38 39 40 41 42 43 44 45 46 47 48 49 50

000
ASUS43 KMPX 181101
RWRMN
WEATHER ROUNDUP FOR MINNESOTA
NATIONAL WEATHER SERVICE TWIN CITIES/CHANHASSEN MN
600 AM CDT FRI AUG 18 2017


NOTE: "FAIR" INDICATES FEW OR NO CLOUDS BELOW 12,000 FEET WITH NO
SIGNIFICANT WEATHER AND/OR OBSTRUCTIONS TO VISIBILITY. N/A MEANS
CURRENT SKY AND/OR WEATHER CONDITIONS ARE NOT AVAILABLE.

MNZ060>063-068>070-181200-
   Twin Cities Metro

CITY           SKY/WX    TMP DP  RH WIND       PRES   REMARKS
TWIN CITIES    CLOUDY    61  58  90 CALM      29.87S
ST PAUL        MOCLDY    59  59 100 CALM      29.87S
CRYSTAL        MOCLDY    58  55  90 CALM      29.86S
BLAINE         MOCLDY    61  61 100 CALM      29.86S
LAKEVILLE      CLOUDY    57  57 100 CALM      29.87F
EDEN PRAIRIE   CLOUDY    60  57  89 CALM      29.86S
SOUTH ST PAUL  MOCLDY    61  60  97 CALM      29.87R
LAKE ELMO      FAIR      57  55  94 CALM      29.88R
$$
MNZ001>005-007-008-013>017-022>024-027-028-181200-
   Northwest Minnesota

CITY           SKY/WX    TMP DP  RH WIND       PRES   REMARKS
BEMIDJI        CLOUDY    55  54  97 W5        29.87R
HALLOCK        CLEAR     50  48  93 CALM      29.82S
ROSEAU         CLEAR     52  46  82 CALM      29.83S HAZE
WARROAD        CLEAR     54  50  87 CALM      29.83S
CROOKSTON      CLEAR     54  54 100 SE5       29.84S
FOSSTON        CLOUDY    54  52  94 S6        29.87S
DETROIT LAKES  PTCLDY    61  57  88 CALM      29.88F
MOORHEAD       CLOUDY    61  57  88 CALM      29.85F
PARK RAPIDS    MOCLDY    57  55  93 CALM      29.87S
MAHNOMEN       FAIR      55  54  97 SE6       29.86F
$$
MNZ006-009>011-018-025>026-181200-
   North Central Minnesota

CITY           SKY/WX    TMP DP  RH WIND       PRES   REMARKS
BAUDETTE       CLEAR     50  50 100 W3        29.82S FOG
FLAG ISLAND    CLEAR     63  52  67 CALM      29.81S
INTL FALLS     FOG       49  47  93 CALM      29.82F VSB 1
WASKISH        CLEAR     52  52 100 CALM      29.84S
BIG FORK       CLOUDY    45  45 100 CALM      29.85S FOG
LONGVILLE      CLOUDY    54  54 100 CALM      29.86R FOG
GRAND RAPIDS   FOG       55  55 100 CALM      29.87R VSB 1/2
CRANE LAKE     FOG       48  48 100 CALM      29.84S VSB<1/4
ORR            FOG       48  46  93 CALM      29.81S VSB 3/4
COOK           FOG       48  48 100 CALM      29.84S VSB 1/2
WALKER         FAIR      55  54  97 W3        29.87R
$$
MNZ012-019>021-037-181200-
   Northeast Minnesota

CITY           SKY/WX    TMP DP  RH WIND       PRES   REMARKS
DULUTH         CLOUDY    56  56 100 NW6       29.83R FOG
ELY            CLOUDY    57  55  94 N5        29.82S
HIBBING        FOG       50  50 100 NW5       29.84R VSB 3/4
EVELETH        MOCLDY    53  50  91 CALM      29.84R FOG
DULUTH HARBOR  PTCLDY    61  57  88 CALM      29.83S
TWO HARBORS    MOCLDY    61  55  82 CALM      29.79R
GRAND MARAIS     N/A     63  58  83 S3        29.74F
G MARAIS ARPRT CLOUDY    57  52  82 N10G16    29.78S
$$
MNZ029>031-032-039>041-046>048-054>057-064-181200-
   West Central Minnesota

CITY           SKY/WX    TMP DP  RH WIND       PRES   REMARKS
FERGUS FALLS   CLOUDY    63  63 100 CALM      29.87F
WHEATON        CLOUDY    63  57  82 CALM      29.90R
MORRIS         LGT RAIN  61  61 100 S3        29.89R
ALEXANDRIA     MOCLDY    62  60  93 N3        29.89F
ELBOW LAKE     FAIR      61  60  96 CALM      29.88S
WADENA         CLOUDY    57  57 100 CALM      29.87S FOG
GLENWOOD       CLOUDY    59  57  94 CALM      29.89R
APPLETON       DRIZZLE   64  61  88 SW5       29.89R
BENSON         LGT RAIN  61  59  94 SW9       29.92R
ORTONVILLE     DRIZZLE   63  59  88 MISG      29.89R
MADISON        LGT RAIN  66  66 100 SW3       29.90S
WILLMAR        CLOUDY    61  61 100 W7        29.90R
$$
MNZ033>034-036-042>043-049>051-058-059-181200-
   Central Minnesota

CITY           SKY/WX    TMP DP  RH WIND       PRES   REMARKS
ST CLOUD       CLOUDY    55  55 100 CALM      29.87S
SAUK CENTRE    PTSUNNY   58  57  99 CALM      29.89R FOG
PAYNESVILLE    CLOUDY    58  58 100 CALM      29.88F
AITKIN         MOCLDY    55  54  94 W5        29.84S
PINE RIVER     CLOUDY    54  54 100 CALM      29.90S
BRAINERD       CLOUDY    54  54 100 S3        29.86S FOG
STAPLES        MOCLDY    55  55 100 CALM      29.88S FOG
LONG PRAIRIE   FAIR      55  55 100 CALM      29.88S FOG
LITTLE FALLS   CLOUDY    54  52  94 CALM      29.87S FOG
LITCHFIELD     CLOUDY    63  61  94 CALM      29.88S
BUFFALO        CLOUDY    57  55  92 CALM      29.88F
MAPLE LAKE     CLOUDY    58  58  98 CALM      29.88F
HUTCHINSON     CLOUDY    59  59 100 CALM      29.89R
$$
MNZ037-044-045-052-053-181200-
   East Central Minnesota

CITY           SKY/WX    TMP DP  RH WIND       PRES   REMARKS
PRINCETON      CLOUDY    55  55 100 CALM      29.86F FOG
MORA           CLOUDY    54  52  94 CALM      29.87S
RUSH CITY      MOCLDY    54  53  95 CALM      29.86S FOG
MOOSE LAKE     CLEAR     55  54  94 CALM      29.83S
HINCKLEY       FAIR      55  55 100 W3        29.84F
CLOQUET        CLEAR     55  52  88 W7        29.84S
MCGREGOR       CLOUDY    54  52  94 CALM      29.85F
$$
MNZ071>073-080-081-089-090-097-098-181200-
   Southwest Minnesota

CITY           SKY/WX    TMP DP  RH WIND       PRES   REMARKS
MONTEVIDEO     LGT RAIN  63  61  94 NW6       29.91R
GRANITE FALLS  RAIN      63  61  94 SW7       29.94R
CANBY          DRIZZLE   63  59  86 CALM      29.92R
MARSHALL       LGT RAIN  62  59  90 CALM      29.91S
REDWOOD FALLS  LGT RAIN  63  58  83 SW7       29.90R
OLIVIA         CLOUDY    61  59  94 SW9       29.91R
PIPESTONE      RAIN      61  57  88 E3        29.90F
WINDOM         RAIN      61  59  94 W5        29.91R
WORTHINGTON    RAIN      62  58  86 N5        29.92R
JACKSON        CLOUDY    61  59  94 CALM      29.90S
TRACY          LGT RAIN  60  58  92 S3        29.91F
SLAYTON        LGT RAIN  60  56  85 CALM      29.92S
$$
MNZ065>067-074>077-082>085-091>093-181200-
   South Central Minnesota

CITY           SKY/WX    TMP DP  RH WIND       PRES   REMARKS
MANKATO        MOCLDY    59  59 100 SW5       29.90R FOG
NEW ULM        LGT RAIN  61  59  94 W6        29.91R
ST JAMES       LGT RAIN  61  61 100 CALM      29.89F
FAIRMONT       PTCLDY    61  60  97 NE7       29.86F
GLENCOE        CLOUDY    59  60 100 CALM      29.87S
FARIBAULT      MOCLDY    55  55 100 CALM      29.89S
OWATONNA       CLOUDY    54  54 100 CALM      29.89S FOG
WASECA         PTCLDY    55  55 100 CALM      29.90S FOG
ALBERT LEA     CLOUDY    63  61  94 CALM      29.90R FOG
$$
MNZ078>079-086>088-094>096-181200-
   Southeast Minnesota

CITY           SKY/WX    TMP DP  RH WIND       PRES   REMARKS
ROCHESTER      CLEAR     56  56 100 NW7       29.89S
RED WING       CLOUDY    57  55  94 CALM      29.86R FOG
STANTON        PTCLDY    56  55  94 CALM      29.86S
DODGE CENTER   CLEAR     57  55  94 W7        29.89S
WINONA         CLEAR     61  57  88 NW5       29.86R
AUSTIN         PTCLDY    59  57  94 CALM      29.89R
PRESTON        CLEAR     58  56  92 NW7       29.88S
$$
ABBREVIATIONS USED IN REMARKS
   TC - TEMPERATURES IN CELSIUS
  WCI - WIND CHILL INDEX
   HX - HEAT INDEX
  VSB - VISIBILITY
$$




USA.gov is the U.S. government's official web portal to all federal, state and local government web resources and services.